Eagle, AK

6:09 AM AKDT on September 19, 2017 (GMT -0800)
Eagle

Weather History for PAEG - September, 2013

Change the Weather History Date:

Monday, September 9, 2013

  Actual Average (PABN) Record (PABN)
Temperature  
Mean Temperature 50 °F -  
Max Temperature 61 °F 47 °F 57 °F (2003)
Min Temperature 37 °F 34 °F 28 °F (2014)
Degree Days  
Heating Degree Days 15    
Moisture  
Dew Point 44 °F    
Average Humidity 86    
Maximum Humidity 100    
Minimum Humidity 58    
Precipitation  
Precipitation 0.04 in - - ()
Sea Level Pressure  
Sea Level Pressure 29.85 in    
Wind  
Wind Speed 1 mph (SE)    
Max Wind Speed 10 mph    
Max Gust Speed 18 mph    
Visibility 9 miles    
Events Rain    
Averages and records for this station are not official NWS values.
T = Trace of Precipitation, MM = Missing Value Source: NWS Daily Summary

Daily Weather History Graph

Daily Weather History Graph

Search for Another Location

Airport or City:

Trip Planner

Search our weather history database for the weather conditions in past years. The results will help you decide how hot, cold, wet, or windy it might be!

Date:

Astronomy

Sep. 09, 2013 Rise Set
Actual Time 6:30 AM AKDT 8:11 PM AKDT
Civil Twilight 5:38 AM AKDT 9:02 PM AKDT
Nautical Twilight 4:30 AM AKDT 10:09 PM AKDT
Astronomical Twilight 2:54 AM AKDT 11:41 PM AKDT
Moon 1:01 PM AKDT (9/9) 8:29 PM AKDT (9/9)
Length of Visible Light 15h 24m
Length of Day
13h 41m
Waxing Crescent, 20% of the Moon is Illuminated
Sep 9
Waxing Crescent
Sep 12
First Quarter
Sep 19
Full
Sep 26
Last Quarter
Oct 4
New

Hourly Weather History & Observations

Time (AKDT) Temp. Windchill Dew Point Humidity Pressure Visibility Wind Dir Wind Speed Gust Speed Precip Events Conditions
12:53 AM 43.0 °F - 42.1 °F 97% 29.82 in 5.0 mi Calm Calm - 0.02 in Rain Light Rain
1:53 AM 43.0 °F - 42.1 °F 97% 29.84 in 9.0 mi Calm Calm - 0.00 in   Overcast
2:23 AM 42.8 °F - 42.8 °F 100% 29.83 in 9.0 mi Calm Calm - 0.01 in Rain Light Rain
2:53 AM 43.0 °F - 42.1 °F 97% 29.85 in 10.0 mi Calm Calm - 0.01 in Rain Light Rain
3:53 AM 43.0 °F - 42.1 °F 97% 29.86 in 10.0 mi Calm Calm - 0.00 in   Overcast
4:00 AM 42.8 °F - 42.8 °F 100% 29.84 in 10.0 mi Calm Calm - N/A   Overcast
4:53 AM 43.0 °F - 42.1 °F 97% 29.87 in 10.0 mi Calm Calm - N/A   Overcast
5:30 AM 42.8 °F - 42.8 °F 100% 29.85 in 5.0 mi Calm Calm - N/A   Overcast
5:53 AM 43.0 °F - 41.0 °F 93% 29.87 in 4.0 mi Calm Calm - N/A   Overcast
6:46 AM 42.8 °F - 41.0 °F 93% 29.86 in 1.8 mi Calm Calm - N/A   Overcast
6:53 AM 43.0 °F - 41.0 °F 93% 29.88 in 1.5 mi Calm Calm - N/A   Overcast
6:56 AM 42.8 °F - 41.0 °F 93% 29.86 in 3.0 mi Calm Calm - N/A   Overcast
7:53 AM 44.1 °F - 43.0 °F 96% 29.89 in 10.0 mi Calm Calm - 0.00 in   Overcast
8:20 AM 44.6 °F - 42.8 °F 93% 29.87 in 10.0 mi Calm Calm - 0.00 in Rain Light Rain
8:36 AM 46.4 °F - 44.6 °F 93% 29.87 in 10.0 mi Calm Calm - 0.00 in Rain Light Rain
8:53 AM 48.0 °F - 46.0 °F 93% 29.89 in 10.0 mi East 3.5 mph - 0.01 in   Overcast
9:08 AM 48.2 °F - 46.4 °F 93% 29.87 in 10.0 mi East 3.5 mph - N/A   Overcast
9:53 AM 48.9 °F - 45.0 °F 86% 29.89 in 10.0 mi SE 3.5 mph - N/A   Overcast
10:53 AM 52.0 °F - 46.9 °F 83% 29.89 in 10.0 mi ESE 5.8 mph - N/A   Clear
11:53 AM 55.0 °F - 48.0 °F 77% 29.88 in 10.0 mi Variable 5.8 mph - N/A   Clear
12:53 PM 55.9 °F - 46.0 °F 69% 29.88 in 10.0 mi ESE 9.2 mph 18.4 mph N/A   Clear
1:53 PM 57.9 °F - 46.9 °F 67% 29.87 in 10.0 mi SE 8.1 mph - N/A   Clear
2:53 PM 59.0 °F - 46.9 °F 64% 29.85 in 10.0 mi SE 10.4 mph 16.1 mph N/A   Clear
3:53 PM 59.0 °F - 45.0 °F 60% 29.84 in 10.0 mi SE 8.1 mph - N/A   Clear
4:53 PM 59.0 °F - 44.1 °F 58% 29.83 in 10.0 mi SE 6.9 mph - N/A   Clear
5:53 PM 59.0 °F - 45.0 °F 60% 29.83 in 10.0 mi SE 5.8 mph - N/A   Clear
6:53 PM 57.9 °F - 46.9 °F 67% 29.82 in 10.0 mi Calm Calm - N/A   Overcast
7:53 PM 55.9 °F - 46.9 °F 72% 29.81 in 10.0 mi Variable 3.5 mph - N/A   Clear
8:53 PM 48.0 °F - 44.1 °F 86% 29.82 in 10.0 mi Calm Calm - N/A   Clear
9:53 PM 43.0 °F 41.3 °F 39.9 °F 89% 29.82 in 10.0 mi SSW 3.5 mph - N/A   Clear
10:53 PM 41.0 °F - 39.0 °F 93% 29.83 in 10.0 mi Calm Calm - N/A   Clear
11:53 PM 37.9 °F - 37.0 °F 97% 29.83 in 10.0 mi Calm Calm - N/A   Clear